Location: 476 Grange Obs.
(45.1420°N, 7.1420°E)
Time: 15:49:06
(UTC+02:00)

ISS - Visible Passes

Search period start: 22 October 2019 00:00
Search period end: 31 October 2019 23:00
Orbit: 411 x 421 km, 51.6° (Epoch: 22 October)

Date Brightness Start Highest point End Pass type
(mag) Time Alt. Az. Time Alt. Az. Time Alt. Az.
24 Oct -0.9 06:48:26 10° S 06:50:46 18° SE 06:53:06 10° E visible
25 Oct -0.6 06:01:36 10° SE 06:02:23 11° SE 06:03:10 10° ESE visible
26 Oct -2.6 06:46:49 10° SW 06:50:01 43° SE 06:53:14 10° ENE visible
27 Oct -2.0 05:00:47 24° SSE 05:01:31 26° SE 05:04:24 10° E visible
28 Oct -0.5 04:14:38 13° ESE 04:14:38 13° ESE 04:15:15 10° E visible
28 Oct -3.8 05:47:33 24° WSW 05:49:25 81° NNW 05:52:48 10° ENE visible
29 Oct -3.1 05:01:15 56° E 05:01:15 56° E 05:04:08 10° ENE visible
29 Oct -2.8 06:34:36 10° W 06:37:43 33° NNW 06:40:49 10° NE visible
30 Oct -0.5 04:14:50 14° ENE 04:14:50 14° ENE 04:15:23 10° ENE visible
30 Oct -3.2 05:47:44 29° WNW 05:48:57 42° NNW 05:52:10 10° NE visible
31 Oct -2.5 05:01:14 38° NE 05:01:14 38° NE 05:03:33 10° NE visible
31 Oct -2.3 06:34:28 10° WNW 06:37:24 26° N 06:40:18 10° NE visible
